Vorticity
3 4 2 6 6 3 3 4 4 3 4 4 5 5 6 6 5 5 5 6 6 4 3 4 3 1 1 2 3 5 4 4 4
1 3 3 -2 2 4 3 4 2 2 2 2 3 4 4 5 6 5 6 6 5 5 5 4 4 4 2 1 2 3 5 4 4
5 3 3 4 -0 2 2 3 2 3 3 2 2 3 1 2 3 3 4 4 4 5 5 5 4 3 4 4 2 2 3 4 4
3 4 3 2 1 2 -0 2 3 3 4 5 4 3 4 2 3 3 3 3 3 4 5 5 5 4 2 3 5 2 2 3 4
2 3 3 4 4 3 3 3 2 3 4 4 6 4 5 5 5 7 6 5 3 4 3 3 4 5 6 3 3 5 4 3 3
2 3 3 4 3 2 2 4 5 3 4 4 4 4 5 5 6 4 3 5 6 6 6 4 4 3 5 6 5 5 5 3 3
4 5 4 3 5 6 6 7 4 5 5 8 8 5 8 9 9 5 5 8 7 3 5 5 4 3 3 5 5 4 5 6 4
4 4 4 4 3 3 4 4 5 4 9 3 9 6 -1 6 5 6 3 -2 -1 5 4 8 4 4 4 4 4 5 4 4 7
1 3 3 5 4 4 3 3 4 8 5 7 3 0 1 -1 5 0 6 7 10 11 14 17 8 5 4 4 4 5 5 6 6
3 5 4 5 6 4 8 7 10 6 7 6 -2 2 3 6 8 5 3 1 1 1 2 3 12 15 8 3 4 5 5 5 5
6 4 1 2 4 4 2 2 -1 5 3 -1 1 4 2 6 8 4 2 3 1 2 4 5 5 7 14 15 8 4 5 4 6
8 -3 -2 -3 0 1 5 2 7 -4 5 -2 1 4 -1 8 6 1 1 1 5 7 6 8 6 6 6 6 14 18 8 2 2
23 30 -14 2 5 3 11 6 4 6 7 7 4 3 8 5 4 2 3 4 5 8 9 9 7 7 2 6 10 11 23 13 16
-24 17 13 -6 -6 7 -11 -1 4 14 9 5 4 13 8 6 4 1 3 6 8 9 9 8 7 7 4 2 6 9 2 22 12
35 0 -9 -7 2 6 11 10 -3 -9 6 -7 17 9 6 1 3 8 7 7 9 9 8 8 9 5 7 3 1 4 0 -7 5
-18 -2 3 17 29 16 5 11 22 -10 21 10 5 -6 1 2 3 4 5 9 12 8 7 7 7 5 2 1 2 3 2 0 -1
37 26 2 2 10 2 7 7 7 2 0 -2 1 -2 5 6 4 6 8 11 10 7 6 6 6 4 3 2 3 4 7 4 -0
18 13 0 8 0 0 3 3 7 4 7 3 6 7 3 6 7 9 9 10 8 7 6 6 5 4 2 4 5 5 5 7 8
-3 -0 4 2 13 5 2 7 5 8 8 8 5 5 6 6 8 11 10 8 6 6 6 5 4 4 4 4 4 5 5 4 5
5 7 6 7 5 -1 5 1 2 4 2 4 9 8 9 10 10 10 9 7 6 5 5 4 3 4 4 4 4 4 4 4 4
Height
5860 5862 5865 5866 5867 5868 5869 5870 5872 5873 5874 5875 5875 5876 5876 5875 5876 5876 5877 5877 5876 5875 5874 5873 5871 5870 5868 5866 5864 5862 5859 5858 5856
5856 5859 5862 5863 5865 5866 5867 5868 5870 5871 5872 5874 5874 5875 5875 5876 5876 5876 5877 5876 5876 5875 5874 5873 5872 5871 5869 5867 5865 5863 5861 5858 5856
5853 5855 5857 5859 5862 5863 5865 5867 5868 5869 5870 5871 5872 5873 5874 5875 5876 5876 5877 5876 5875 5875 5874 5872 5872 5870 5869 5868 5866 5864 5861 5860 5858
5848 5850 5853 5856 5858 5860 5861 5863 5865 5866 5868 5869 5870 5871 5871 5872 5873 5874 5875 5875 5874 5874 5874 5872 5871 5870 5869 5867 5867 5865 5862 5860 5858
5843 5846 5849 5852 5855 5857 5859 5860 5861 5862 5864 5866 5867 5868 5869 5869 5870 5871 5871 5872 5872 5872 5872 5872 5870 5869 5867 5867 5866 5865 5863 5861 5858
5839 5842 5845 5848 5850 5852 5855 5857 5858 5859 5861 5863 5864 5865 5866 5867 5868 5869 5869 5870 5869 5869 5868 5869 5869 5868 5867 5865 5864 5864 5863 5861 5859
5834 5837 5840 5842 5845 5847 5850 5852 5854 5855 5857 5858 5860 5862 5863 5863 5865 5866 5866 5867 5867 5867 5866 5865 5864 5865 5865 5864 5863 5863 5861 5859 5859
5829 5832 5834 5837 5838 5841 5844 5847 5849 5852 5853 5855 5856 5857 5859 5860 5861 5862 5863 5864 5864 5863 5863 5864 5864 5861 5862 5862 5861 5860 5859 5858 5857
5823 5826 5829 5831 5834 5836 5839 5841 5844 5846 5849 5851 5852 5853 5855 5856 5858 5858 5860 5860 5861 5861 5860 5859 5859 5859 5858 5859 5859 5859 5858 5856 5854
5815 5819 5822 5825 5827 5831 5834 5836 5838 5841 5844 5846 5847 5849 5851 5852 5853 5855 5855 5857 5858 5858 5857 5857 5857 5856 5856 5855 5854 5854 5854 5854 5853
5806 5810 5814 5817 5821 5825 5828 5830 5832 5834 5837 5841 5843 5843 5846 5848 5849 5850 5852 5853 5853 5854 5854 5854 5853 5854 5853 5852 5853 5852 5852 5852 5851
5799 5802 5805 5809 5814 5817 5820 5822 5825 5828 5829 5832 5835 5838 5840 5842 5844 5846 5846 5848 5849 5850 5851 5851 5851 5850 5850 5850 5850 5850 5849 5850 5849
5789 5792 5798 5802 5807 5810 5813 5816 5818 5822 5824 5825 5828 5831 5834 5836 5838 5841 5843 5843 5845 5845 5846 5846 5847 5847 5848 5847 5847 5847 5846 5846 5846
5777 5784 5787 5791 5796 5800 5804 5807 5811 5814 5817 5820 5822 5822 5827 5831 5833 5835 5837 5838 5839 5840 5841 5842 5843 5844 5844 5844 5844 5844 5844 5843 5843
5768 5772 5777 5783 5787 5791 5795 5797 5803 5806 5808 5811 5813 5816 5820 5823 5826 5828 5830 5831 5833 5834 5835 5836 5838 5839 5839 5839 5840 5840 5842 5842 5841
5757 5761 5768 5773 5778 5781 5784 5787 5791 5796 5800 5803 5805 5809 5812 5816 5818 5820 5822 5825 5827 5829 5831 5832 5833 5833 5834 5835 5836 5837 5838 5838 5839
5744 5749 5757 5763 5769 5772 5777 5781 5783 5786 5791 5794 5797 5801 5804 5807 5809 5812 5815 5818 5820 5821 5824 5826 5827 5828 5829 5830 5831 5832 5832 5834 5835
5735 5741 5746 5753 5759 5763 5767 5772 5776 5779 5782 5785 5789 5792 5796 5797 5800 5803 5806 5809 5812 5814 5815 5817 5819 5821 5823 5824 5826 5827 5828 5828 5829
5726 5732 5737 5743 5748 5755 5759 5762 5766 5769 5773 5777 5780 5783 5786 5789 5793 5795 5797 5800 5803 5805 5807 5809 5811 5814 5817 5818 5819 5820 5820 5821 5822
5715 5722 5728 5733 5738 5744 5748 5752 5756 5759 5762 5766 5769 5772 5776 5779 5782 5785 5788 5791 5794 5795 5798 5801 5802 5805 5808 5810 5812 5812 5812 5813 5814